Terug naar catalogus

DELTA 1 DEB

ActiefPO
NORAD 21546·DEBRIS·🇺🇸 United States

Gelanceerd Jun 12, 1975 vanaf Vandenberg Space Force Base

Loading…

Volgende Passages (komende 24 uur)

TLE

VersSource: Space-Track

Epoch: Sep 14, 2026, 14:00 UTC

1 21546U 75052HA  26257.58387939  .00000857  00000-0  41512-2 0  9996
2 21546  99.5503 176.0001 0607035 145.0957 341.3342 12.28911732579522

Volg DELTA 1 DEB in realtime met AllMySat

Download on the App Store